Home > Weather > Maldonado > Past weeks

Flag for Uruguay Weather for the Past 2 Weeks in Maldonado, Uruguay

Now
77 °F

Thundershowers. Passing clouds.


Feels Like: 79 °F
Forecast: 74 / 83 °F
Wind: 6 mph from Northeast

Location: Capitan Corbeta

Current Time: Feb 13, 2016 at 5:00:04 AM

Latest Report: Feb 13, 2016 at 4:00 AM


Visibility: N/A

Pressure: 29.65 "Hg

Humidity: 79%

Dew point: 70 °F

Location of MaldonadoLocation

Historic Weather in Maldonado — Graph

°F

Maldonado Temperature Yesterday

Maximum temperature yesterday: 99 °F (at 1:00 PM)
Minimum temperature yesterday: 72 °F (at 1:00 AM)
Average temperature yesterday: 83 °F

High & Low Weather Summary for the Past Weeks

 TemperatureHumidityPressure
High99 °F (Feb 12, 1:00 PM)94% (Jan 30, 6:00 AM)30.12 "Hg (Jan 30, 6:00 AM)
Low57 °F (Feb 11, 6:00 AM)25% (Feb 12, 1:00 PM)29.65 "Hg (Feb 13, 2:00 AM)
Average74 °F69%29.94 "Hg
* Reported Jan 29 4:00 AM — Feb 13 4:00 AM, Maldonado, Weather by CustomWeather, © 2016

Note: Actual official high and low records may vary slightly from our data, if they occured in-between our weather recording intervals... More about our weather records

Advertising

Maldonado Weather History for the Previous 24 Hours

 ConditionsComfort  
Time TempWeatherWind HumidityBarometerVisibility
4:00 AM
Sat, Feb 13
77 °FThundershowers. Passing clouds.6 mph79%29.65 "HgN/A
3:00 AM77 °FThundershowers. Passing clouds.7 mph79%29.65 "HgN/A
2:00 AM77 °FClear.9 mph74%29.65 "Hg10 mi
1:00 AM77 °FClear.7 mph69%29.68 "Hg10 mi
12:00 AM79 °FClear.12 mph65%29.68 "Hg10 mi
11:00 PM
Fri, Feb 12
81 °FClear.12 mph58%29.71 "Hg10 mi
9:00 PM84 °FClear.12 mph45%29.68 "Hg10 mi
8:00 PM86 °FClear.8 mph52%29.68 "Hg10 mi
7:00 PM91 °FSunny.9 mph34%29.68 "Hg10 mi
6:00 PM93 °FPassing clouds.14 mph30%29.68 "HgN/A
5:00 PM95 °FPassing clouds.17 mph28%29.68 "HgN/A
4:00 PM93 °FPassing clouds.14 mph30%29.71 "HgN/A
3:00 PM95 °FPassing clouds.7 mph25%29.74 "HgN/A
1:00 PM99 °FSunny.12 mph25%29.77 "Hg10 mi
12:00 PM95 °FSunny.17 mph28%29.80 "Hg10 mi
11:00 AM91 °FSunny.14 mph38%29.83 "Hg10 mi
10:00 AM86 °FSunny.14 mph49%29.83 "Hg10 mi
9:00 AM82 °FSunny.12 mph58%29.83 "Hg10 mi
8:00 AM77 °FSunny.9 mph69%29.83 "Hg10 mi
7:00 AM73 °FSunny.6 mph83%29.83 "Hg10 mi
6:00 AM72 °FPassing clouds.7 mph83%29.83 "HgN/A
5:00 AM72 °FPassing clouds.7 mph83%29.80 "HgN/A
Weather by CustomWeather, © 2016

See weather overviewHow to use our weather pages